Tracking 30986 objects as of 9-Jul-2025
HD Live streaming from Space Station
objects crossing your sky now

SL-14 R/B

Track SL-14 R/B now!
10-day predictions


NORAD ID: 16144
Int'l Code: 1985-094G
Perigee: 1,422.3 km
Apogee: 1,480.2 km
Inclination: 82.6 °
Period: 114.8 minutes
Semi major axis: 7822 km
RCS: 6.98 m2 (large)
Launch date: October 9, 1985
Source: Commonwealth of Independent States (former USSR) (CIS)
Launch site: PLESETSK MISSILE AND SPACE COMPLEX (PKMTR)

Note: This is a ROCKET BODY
Your satellite tracking list
Your tracking list is empty




NASA's NSSDC Master Catalog

Two Line Element Set (TLE):
1 16144U 85094G   25189.74179116  .00000023  00000-0  74612-4 0  9992
2 16144  82.6081 268.8021 0037044 142.7951 332.4277 12.54890349820673
Source of the keplerian elements: AFSPC